Flag for Germany Weather past 2 weeks in Bramsche, Lower Saxony, Germany

Now
57 °F

Overcast.


Feels Like: 57 °F
Forecast: 47 / 60 °F
Wind: 2 mph from Southeast

Location: Muenster / Osnabrueck

Current Time: May 27, 2015 at 10:50:54 PM

Latest Report: May 27, 2015 at 10:00 PM


Visibility: 16 mi

Pressure: 30.08 "Hg

Humidity: 58%

Dew point: 43 °F

Location of BramscheLocation

Historic Weather in Bramsche — Graph

°F

Bramsche temperature yesterday

Maximum temperature yesterday: 57 °F (at 5:00 PM)
Minimum temperature yesterday: 47 °F (at 7:00 AM)
Average temperature yesterday: 52 °F

Past Weeks' High & Low Weather Summary

 TemperatureHumidityPressure
High69 °F (May 22, 5:00 PM)98% (May 21, 1:00 AM)30.34 "Hg (May 21, 1:00 AM)
Low38 °F (May 17, 6:00 AM)38% (May 22, 5:00 PM)29.61 "Hg (May 18, 8:00 PM)
Average53 °F68%30.07 "Hg
* Reported May 12 10:00 PM — May 27 10:00 PM, Bramsche, Weather by CustomWeather, © 2015

Note: Actual official high and low records may vary slightly from our data, if they occured in-between our weather recording intervals... More about our weather records

Advertising

Bramsche weather history for previous 24 hours

 ConditionsComfort  
Time TempWeatherWind HumidityBarometerVisibility
10:00 PM
Wed, May 27
57 °FOvercast.2 mph58%30.08 "Hg16 mi
9:00 PM59 °FOvercast.2 mph53%30.09 "Hg16 mi
8:00 PM60 °FPartly sunny.2 mph51%30.11 "Hg19 mi
7:00 PM61 °FOvercast.3 mph44%30.13 "Hg19 mi
6:00 PM61 °FOvercast.5 mph45%30.15 "Hg19 mi
5:00 PM61 °FOvercast.5 mph47%30.17 "Hg19 mi
4:00 PM60 °FOvercast.5 mph46%30.19 "Hg19 mi
3:00 PM60 °FOvercast.3 mph45%30.20 "Hg19 mi
2:00 PM61 °FOvercast.3 mph44%30.22 "Hg19 mi
1:00 PM58 °FOvercast.2 mph48%30.23 "Hg16 mi
12:00 PM56 °FPartly sunny.3 mph61%30.24 "Hg16 mi
11:00 AM55 °FOvercast.3 mph65%30.25 "Hg16 mi
10:00 AM53 °FOvercast.3 mph70%30.25 "Hg16 mi
9:00 AM52 °FOvercast.3 mph73%30.25 "Hg19 mi
8:00 AM51 °FOvercast.2 mph74%30.25 "Hg19 mi
7:00 AM49 °FOvercast.3 mph76%30.24 "Hg16 mi
6:00 AM48 °FOvercast.2 mph78%30.24 "Hg16 mi
5:00 AM48 °FOvercast.2 mph80%30.24 "Hg16 mi
4:00 AM48 °FOvercast.2 mph78%30.24 "Hg16 mi
3:00 AM49 °FCool.2 mph76%30.24 "HgN/A
2:00 AM49 °FOvercast.2 mph72%30.23 "Hg16 mi
1:00 AM50 °FOvercast.3 mph68%30.23 "Hg16 mi
12:00 AM50 °FOvercast.3 mph69%30.22 "Hg16 mi
11:00 PM
Tue, May 26
51 °FOvercast.2 mph66%30.22 "Hg16 mi
10:00 PM51 °FOvercast.5 mph63%30.21 "Hg16 mi
Weather by CustomWeather, © 2015

See weather overviewHow to use our weather pages